| time (UTC) | temp F | wind direction | speed MPH | gust MPH | rain 1hr in | rain 24hr in | rain mn in | humidity % | barometer mb |
| 20260503032257 | 56 | 176 | 2.0 | 6.0 | 0.00 | 0.00 | 0.00 | 43 | 1050.1 |
| 20260503031753 | 56 | 200 | 2.0 | 6.0 | 0.00 | 0.00 | 0.00 | 43 | 1050.2 |
| 20260503031252 | 56 | 211 | 4.0 | 6.0 | 0.00 | 0.00 | 0.00 | 42 | 1050.3 |
| 20260503030747 | 56 | 184 | 5.0 | 7.0 | 0.00 | 0.00 | 0.00 | 42 | 1050.5 |
| 20260503030244 | 57 | 189 | 3.0 | 7.0 | 0.00 | 0.00 | 0.00 | 42 | 1050.5 |
| 20260503025741 | 57 | 199 | 3.0 | 6.0 | 0.00 | 0.00 | 0.00 | 42 | 1050.6 |
| 20260503025239 | 57 | 215 | 6.0 | 8.0 | 0.00 | 0.00 | 0.00 | 41 | 1050.6 |
| 20260503024735 | 57 | 197 | 1.0 | 6.0 | 0.00 | 0.00 | 0.00 | 42 | 1050.5 |
| 20260503024232 | 57 | 241 | 3.0 | 6.0 | 0.00 | 0.00 | 0.00 | 42 | 1050.7 |
| 20260503023729 | 57 | 205 | 2.0 | 4.0 | 0.00 | 0.00 | 0.00 | 43 | 1050.6 |
| 20260503023226 | 57 | 205 | 2.0 | 3.0 | 0.00 | 0.00 | 0.00 | 42 | 1050.7 |
| 20260503022722 | 57 | 209 | 3.0 | 3.0 | 0.00 | 0.00 | 0.00 | 42 | 1050.8 |
| 20260503022222 | 57 | 200 | 2.0 | 4.0 | 0.00 | 0.00 | 0.00 | 42 | 1050.8 |
| 20260503021719 | 58 | 184 | 1.0 | 7.0 | 0.00 | 0.00 | 0.00 | 41 | 1050.7 |
| 20260503021215 | 57 | 190 | 2.0 | 3.0 | 0.00 | 0.00 | 0.00 | 41 | 1050.9 |
| 20260503020713 | 57 | 191 | 1.0 | 2.0 | 0.00 | 0.00 | 0.00 | 41 | 1050.7 |
| 20260503020210 | 57 | 190 | 2.0 | 2.0 | 0.00 | 0.00 | 0.00 | 42 | 1050.7 |
| 20260503015707 | 57 | 181 | 0.0 | 1.0 | 0.00 | 0.00 | 0.00 | 42 | 1050.7 |
| 20260503015204 | 58 | 217 | 0.0 | 1.0 | 0.00 | 0.00 | 0.00 | 42 | 1050.8 |
| 20260503014655 | 58 | 209 | 1.0 | 2.0 | 0.00 | 0.00 | 0.00 | 42 | 1051.0 |
| 20260503014153 | 58 | 189 | 1.0 | 3.0 | 0.00 | 0.00 | 0.00 | 41 | 1050.9 |
| 20260503013649 | 58 | 183 | 1.0 | 3.0 | 0.00 | 0.00 | 0.00 | 40 | 1051.0 |
| 20260503013148 | 59 | 184 | 0.0 | 2.0 | 0.00 | 0.00 | 0.00 | 41 | 1050.7 |
| 20260503012644 | 59 | 213 | 1.0 | 1.0 | 0.00 | 0.00 | 0.00 | 40 | 1051.1 |
| 20260503012141 | 59 | 207 | 1.0 | 1.0 | 0.00 | 0.00 | 0.00 | 40 | 1050.9 |
| 20260503011637 | 59 | 180 | 0.0 | 1.0 | 0.00 | 0.00 | 0.00 | 41 | 1050.9 |
| 20260503011135 | 59 | 189 | 1.0 | 1.0 | 0.00 | 0.00 | 0.00 | 39 | 1051.0 |
| 20260503010631 | 59 | 210 | 1.0 | 2.0 | 0.00 | 0.00 | 0.00 | 38 | 1050.9 |
| 20260503010129 | 60 | 205 | 1.0 | 3.0 | 0.00 | 0.00 | 0.00 | 38 | 1050.9 |
| 20260503005626 | 60 | 198 | 0.0 | 1.0 | 0.00 | 0.00 | 0.00 | 39 | 1051.0 |
| 20260503005123 | 60 | 241 | 2.0 | 2.0 | 0.00 | 0.00 | 0.00 | 37 | 1050.9 |
| 20260503004619 | 60 | 263 | 2.0 | 3.0 | 0.00 | 0.00 | 0.00 | 36 | 1051.0 |
| 20260503004117 | 60 | 209 | 2.0 | 3.0 | 0.00 | 0.00 | 0.00 | 36 | 1051.0 |
| 20260503003614 | 61 | 209 | 2.0 | 4.0 | 0.00 | 0.00 | 0.00 | 36 | 1051.1 |
| 20260503003111 | 61 | 216 | 1.0 | 4.0 | 0.00 | 0.00 | 0.00 | 36 | 1051.0 |
| 20260503002608 | 61 | 278 | 2.0 | 4.0 | 0.00 | 0.00 | 0.00 | 35 | 1051.1 |
| 20260503002105 | 61 | 215 | 3.0 | 4.0 | 0.00 | 0.00 | 0.00 | 36 | 1051.3 |
| 20260503001601 | 61 | 211 | 2.0 | 3.0 | 0.00 | 0.00 | 0.00 | 35 | 1051.3 |
| 20260503001058 | 62 | 203 | 1.0 | 6.0 | 0.00 | 0.00 | 0.00 | 35 | 1051.3 |
| 20260503000555 | 62 | 266 | 5.0 | 6.0 | 0.00 | 0.00 | 0.00 | 34 | 1051.3 |
| 20260503000052 | 62 | 260 | 3.0 | 4.0 | 0.00 | 0.00 | 0.00 | 34 | 1051.3 |
| 20260502235548 | 62 | 265 | 4.0 | 9.0 | 0.00 | 0.00 | 0.00 | 34 | 1051.6 |
| 20260502235046 | 62 | 191 | 3.0 | 6.0 | 0.00 | 0.00 | 0.00 | 33 | 1051.4 |
| 20260502234542 | 62 | 187 | 6.0 | 8.0 | 0.00 | 0.00 | 0.00 | 33 | 1051.4 |
| 20260502234040 | 63 | 194 | 4.0 | 8.0 | 0.00 | 0.00 | 0.00 | 33 | 1051.5 |
| 20260502233540 | 63 | 226 | 2.0 | 4.0 | 0.00 | 0.00 | 0.00 | 33 | 1051.4 |
| 20260502233037 | 63 | 185 | 3.0 | 4.0 | 0.00 | 0.00 | 0.00 | 32 | 1051.4 |
| 20260502232533 | 63 | 239 | 2.0 | 6.0 | 0.00 | 0.00 | 0.00 | 33 | 1051.6 |
| 20260502232031 | 63 | 252 | 2.0 | 7.0 | 0.00 | 0.00 | 0.00 | 33 | 1051.6 |
| 20260502231528 | 63 | 283 | 5.0 | 8.0 | 0.00 | 0.00 | 0.00 | 32 | 1051.6 |
| 20260502231026 | 63 | 267 | 4.0 | 7.0 | 0.00 | 0.00 | 0.00 | 32 | 1051.7 |
| 20260502230524 | 64 | 252 | 5.0 | 6.0 | 0.00 | 0.00 | 0.00 | 32 | 1051.8 |
| 20260502230022 | 63 | 311 | 2.0 | 6.0 | 0.00 | 0.00 | 0.00 | 33 | 1051.9 |
| 20260502225522 | 63 | 289 | 4.0 | 8.0 | 0.00 | 0.00 | 0.00 | 33 | 1051.9 |
| 20260502225020 | 63 | 208 | 5.0 | 7.0 | 0.00 | 0.00 | 0.00 | 31 | 1051.9 |
| 20260502224516 | 64 | 206 | 4.0 | 6.0 | 0.00 | 0.00 | 0.00 | 31 | 1051.9 |
| 20260502224013 | 64 | 232 | 2.0 | 7.0 | 0.00 | 0.00 | 0.00 | 34 | 1051.9 |
| 20260502223511 | 64 | 266 | 4.0 | 7.0 | 0.00 | 0.00 | 0.00 | 34 | 1052.0 |
| 20260502223009 | 64 | 285 | 4.0 | 6.0 | 0.00 | 0.00 | 0.00 | 31 | 1052.0 |
| 20260502222506 | 63 | 268 | 3.0 | 4.0 | 0.00 | 0.00 | 0.00 | 32 | 1052.3 |
| 20260502222002 | 63 | 186 | 3.0 | 7.0 | 0.00 | 0.00 | 0.00 | 31 | 1052.4 |
| 20260502221458 | 63 | 290 | 3.0 | 6.0 | 0.00 | 0.00 | 0.00 | 32 | 1052.5 |
| 20260502220955 | 63 | 274 | 3.0 | 7.0 | 0.00 | 0.00 | 0.00 | 33 | 1052.4 |
| 20260502220451 | 63 | 240 | 1.0 | 10.0 | 0.00 | 0.00 | 0.00 | 34 | 1052.4 |
| 20260502215948 | 63 | 211 | 4.0 | 7.0 | 0.00 | 0.00 | 0.00 | 32 | 1052.4 |
| 20260502215445 | 63 | 292 | 2.0 | 3.0 | 0.00 | 0.00 | 0.00 | 31 | 1052.4 |
| 20260502214942 | 63 | 321 | 5.0 | 7.0 | 0.00 | 0.00 | 0.00 | 32 | 1052.6 |
| 20260502214439 | 64 | 271 | 1.0 | 4.0 | 0.00 | 0.00 | 0.00 | 32 | 1052.7 |
| 20260502213936 | 63 | 287 | 2.0 | 4.0 | 0.00 | 0.00 | 0.00 | 31 | 1052.9 |
| 20260502213432 | 63 | 222 | 7.0 | 8.0 | 0.00 | 0.00 | 0.00 | 32 | 1052.8 |
| 20260502212931 | 63 | 250 | 4.0 | 9.0 | 0.00 | 0.00 | 0.00 | 32 | 1052.9 |
| 20260502212430 | 63 | 276 | 3.0 | 4.0 | 0.00 | 0.00 | 0.00 | 37 | 1052.9 |
| 20260502211927 | 63 | 223 | 2.0 | 6.0 | 0.00 | 0.00 | 0.00 | 31 | 1053.0 |
| 20260502211422 | 63 | 285 | 5.0 | 7.0 | 0.00 | 0.00 | 0.00 | 32 | 1053.1 |
| 20260502210920 | 62 | 250 | 4.0 | 7.0 | 0.00 | 0.00 | 0.00 | 33 | 1053.2 |
| 20260502210417 | 62 | 188 | 4.0 | 9.0 | 0.00 | 0.00 | 0.00 | 34 | 1053.2 |
| 20260502205914 | 62 | 14 | 4.0 | 4.0 | 0.00 | 0.00 | 0.00 | 31 | 1053.3 |
| 20260502205410 | 61 | 285 | 7.0 | 9.0 | 0.00 | 0.00 | 0.00 | 33 | 1053.4 |
| 20260502204907 | 62 | 286 | 3.0 | 16.0 | 0.00 | 0.00 | 0.00 | 34 | 1053.1 |
| 20260502204404 | 63 | 275 | 3.0 | 4.0 | 0.00 | 0.00 | 0.00 | 32 | 1053.4 |
| 20260502203902 | 62 | 213 | 1.0 | 1.0 | 0.00 | 0.00 | 0.00 | 36 | 1053.4 |
| 20260502203359 | 61 | 282 | 2.0 | 8.0 | 0.00 | 0.00 | 0.00 | 31 | 1053.5 |
| 20260502202854 | 62 | 257 | 10.0 | 13.0 | 0.00 | 0.00 | 0.00 | 31 | 1053.5 |
| 20260502202352 | 62 | 226 | 1.0 | 6.0 | 0.00 | 0.00 | 0.00 | 33 | 1053.7 |
| 20260502201850 | 62 | 329 | 6.0 | 9.0 | 0.00 | 0.00 | 0.00 | 32 | 1053.9 |
| 20260502201346 | 61 | 250 | 3.0 | 4.0 | 0.00 | 0.00 | 0.00 | 34 | 1053.7 |
| 20260502200842 | 60 | 253 | 4.0 | 6.0 | 0.00 | 0.00 | 0.00 | 32 | 1053.9 |
| 20260502200338 | 62 | 290 | 4.0 | 7.0 | 0.00 | 0.00 | 0.00 | 31 | 1053.9 |
| 20260502195836 | 61 | 180 | 2.0 | 6.0 | 0.00 | 0.00 | 0.00 | 34 | 1054.0 |
| 20260502195333 | 61 | 265 | 5.0 | 8.0 | 0.00 | 0.00 | 0.00 | 32 | 1054.1 |
| 20260502194830 | 60 | 257 | 4.0 | 6.0 | 0.00 | 0.00 | 0.00 | 32 | 1054.3 |
| 20260502194327 | 59 | 289 | 6.0 | 7.0 | 0.00 | 0.00 | 0.00 | 32 | 1054.4 |
| 20260502193822 | 60 | 270 | 6.0 | 10.0 | 0.00 | 0.00 | 0.00 | 32 | 1054.6 |
| 20260502193320 | 60 | 238 | 4.0 | 6.0 | 0.00 | 0.00 | 0.00 | 31 | 1054.5 |
| 20260502192815 | 59 | 288 | 4.0 | 7.0 | 0.00 | 0.00 | 0.00 | 34 | 1054.4 |
| 20260502192312 | 60 | 283 | 4.0 | 6.0 | 0.00 | 0.00 | 0.00 | 35 | 1054.5 |
| 20260502191810 | 59 | 234 | 9.0 | 11.0 | 0.00 | 0.00 | 0.00 | 30 | 1054.8 |
| 20260502191307 | 59 | 276 | 7.0 | 14.0 | 0.00 | 0.00 | 0.00 | 32 | 1054.9 |
| 20260502190804 | 60 | 246 | 8.0 | 8.0 | 0.00 | 0.00 | 0.00 | 30 | 1054.9 |
| 20260502190302 | 58 | 195 | 4.0 | 7.0 | 0.00 | 0.00 | 0.00 | 33 | 1055.2 |
| 20260502185757 | 59 | 243 | 6.0 | 10.0 | 0.00 | 0.00 | 0.00 | 33 | 1055.2 |
| 20260502185253 | 59 | 229 | 7.0 | 14.0 | 0.00 | 0.00 | 0.00 | 34 | 1055.3 |
| 20260502184750 | 59 | 282 | 4.0 | 8.0 | 0.00 | 0.00 | 0.00 | 35 | 1055.3 |
| 20260502184245 | 59 | 267 | 8.0 | 10.0 | 0.00 | 0.00 | 0.00 | 33 | 1055.5 |
| 20260502183742 | 58 | 222 | 4.0 | 8.0 | 0.00 | 0.00 | 0.00 | 34 | 1055.7 |
| 20260502183238 | 57 | 247 | 3.0 | 7.0 | 0.00 | 0.00 | 0.00 | 35 | 1055.9 |
| 20260502182733 | 57 | 255 | 4.0 | 8.0 | 0.00 | 0.00 | 0.00 | 34 | 1055.8 |
| 20260502182224 | 58 | 295 | 9.0 | 18.0 | 0.00 | 0.00 | 0.00 | 33 | 1055.8 |
| 20260502181720 | 58 | 178 | 2.0 | 6.0 | 0.00 | 0.00 | 0.00 | 32 | 1056.0 |
| 20260502181220 | 57 | 262 | 4.0 | 6.0 | 0.00 | 0.00 | 0.00 | 34 | 1055.9 |
| 20260502180716 | 56 | 263 | 4.0 | 6.0 | 0.00 | 0.00 | 0.00 | 33 | 1056.1 |
| 20260502180214 | 56 | 251 | 3.0 | 6.0 | 0.00 | 0.00 | 0.00 | 35 | 1056.0 |
| 20260502170132 | 56 | 249 | 5.0 | 6.0 | 0.00 | 0.00 | 0.00 | 39 | 1056.9 |
| 20260502164119 | 55 | 241 | 2.0 | 7.0 | 0.00 | 0.00 | 0.00 | 37 | 1057.0 |
| 20260502163615 | 54 | 266 | 5.0 | 9.0 | 0.00 | 0.00 | 0.00 | 38 | 1057.0 |
| 20260502163111 | 55 | 264 | 3.0 | 8.0 | 0.00 | 0.00 | 0.00 | 37 | 1057.2 |
| 20260502162608 | 56 | 153 | 1.0 | 3.0 | 0.00 | 0.00 | 0.00 | 36 | 1057.1 |
| 20260502162105 | 55 | 241 | 3.0 | 8.0 | 0.00 | 0.00 | 0.00 | 41 | 1057.2 |
| 20260502161601 | 54 | 217 | 5.0 | 7.0 | 0.00 | 0.00 | 0.00 | 39 | 1057.2 |
| 20260502161059 | 54 | 204 | 4.0 | 6.0 | 0.00 | 0.00 | 0.00 | 38 | 1057.1 |
| 20260502160557 | 53 | 166 | 4.0 | 7.0 | 0.00 | 0.00 | 0.00 | 39 | 1057.4 |
| 20260502152010 | 53 | 250 | 6.0 | 8.0 | 0.00 | 0.00 | 0.00 | 39 | 1057.4 |
| 20260502151507 | 53 | 310 | 2.0 | 6.0 | 0.00 | 0.00 | 0.00 | 40 | 1057.6 |
| 20260502151004 | 53 | 295 | 3.0 | 6.0 | 0.00 | 0.00 | 0.00 | 41 | 1057.7 |
| 20260502150501 | 53 | 260 | 2.0 | 4.0 | 0.00 | 0.00 | 0.00 | 40 | 1057.7 |
| 20260502130346 | 44 | 213 | 3.0 | 3.0 | 0.00 | 0.00 | 0.00 | 58 | 1058.2 |
| 20260502123329 | 40 | 192 | 1.0 | 2.0 | 0.00 | 0.00 | 0.00 | 66 | 1058.1 |
| 20260502122826 | 39 | 188 | 1.0 | 1.0 | 0.00 | 0.00 | 0.00 | 66 | 1058.1 |
| 20260502122321 | 39 | 227 | 1.0 | 2.0 | 0.00 | 0.00 | 0.00 | 66 | 1057.9 |
| 20260502121821 | 38 | 196 | 0.0 | 1.0 | 0.00 | 0.00 | 0.00 | 69 | 1057.8 |
| 20260502121318 | 37 | 172 | 0.0 | 0.0 | 0.00 | 0.00 | 0.00 | 72 | 1057.9 |
| 20260502120814 | 35 | 165 | 0.0 | 0.0 | 0.00 | 0.00 | 0.00 | 75 | 1057.9 |
| 20260502120311 | 34 | 172 | 0.0 | 0.0 | 0.00 | 0.00 | 0.00 | 77 | 1057.9 |
| 20260502115809 | 32 | 172 | 0.0 | 0.0 | 0.00 | 0.00 | 0.00 | 82 | 1057.7 |
| 20260502115306 | 32 | 174 | 0.0 | 0.0 | 0.00 | 0.00 | 0.00 | 84 | 1057.7 |
| 20260502114801 | 31 | 175 | 0.0 | 0.0 | 0.00 | 0.00 | 0.00 | 83 | 1057.7 |
| 20260502114258 | 31 | 178 | 0.0 | 0.0 | 0.00 | 0.00 | 0.00 | 84 | 1057.8 |
| 20260502113755 | 31 | 178 | 0.0 | 0.0 | 0.00 | 0.00 | 0.00 | 86 | 1057.7 |
| 20260502113253 | 30 | 178 | 0.0 | 0.0 | 0.00 | 0.00 | 0.00 | 86 | 1057.4 |
| 20260502112751 | 30 | 180 | 0.0 | 0.0 | 0.00 | 0.00 | 0.00 | 87 | 1057.6 |
| 20260502112249 | 30 | 180 | 0.0 | 0.0 | 0.00 | 0.00 | 0.00 | 88 | 1057.6 |
| 20260502111745 | 30 | 180 | 0.0 | 0.0 | 0.00 | 0.00 | 0.00 | 89 | 1057.6 |
| 20260502111243 | 29 | 179 | 0.0 | 0.0 | 0.00 | 0.00 | 0.00 | 90 | 1057.5 |
| 20260502110740 | 29 | 180 | 0.0 | 0.0 | 0.00 | 0.00 | 0.00 | 90 | 1057.6 |
| 20260502110238 | 29 | 180 | 0.0 | 0.0 | 0.00 | 0.00 | 0.00 | 90 | 1057.5 |
| 20260502105736 | 29 | 180 | 0.0 | 0.0 | 0.00 | 0.00 | 0.00 | 90 | 1057.5 |
| 20260502105232 | 30 | 180 | 0.0 | 0.0 | 0.00 | 0.00 | 0.00 | 89 | 1057.5 |
| 20260502104730 | 30 | 176 | 0.0 | 0.0 | 0.00 | 0.00 | 0.00 | 89 | 1057.4 |
| 20260502104227 | 30 | 176 | 0.0 | 0.0 | 0.00 | 0.00 | 0.00 | 89 | 1057.5 |
| 20260502103725 | 30 | 176 | 0.0 | 0.0 | 0.00 | 0.00 | 0.00 | 88 | 1057.4 |
| 20260502103222 | 30 | 176 | 0.0 | 0.0 | 0.00 | 0.00 | 0.00 | 87 | 1057.4 |
| 20260502102719 | 30 | 176 | 0.0 | 0.0 | 0.00 | 0.00 | 0.00 | 87 | 1057.7 |
| 20260502102216 | 30 | 177 | 0.0 | 0.0 | 0.00 | 0.00 | 0.00 | 88 | 1057.5 |
| 20260502101714 | 30 | 178 | 0.0 | 0.0 | 0.00 | 0.00 | 0.00 | 89 | 1057.8 |
| 20260502101212 | 30 | 179 | 0.0 | 0.0 | 0.00 | 0.00 | 0.00 | 90 | 1057.7 |
| 20260502100709 | 30 | 179 | 0.0 | 0.0 | 0.00 | 0.00 | 0.00 | 89 | 1057.5 |
| 20260502100208 | 30 | 179 | 0.0 | 0.0 | 0.00 | 0.00 | 0.00 | 89 | 1057.6 |
| 20260502091142 | 30 | 177 | 0.0 | 0.0 | 0.00 | 0.00 | 0.00 | 90 | 1057.2 |
| 20260502090639 | 30 | 180 | 0.0 | 0.0 | 0.00 | 0.00 | 0.00 | 91 | 1057.5 |
| 20260502090136 | 31 | 181 | 0.0 | 0.0 | 0.00 | 0.00 | 0.00 | 89 | 1057.4 |
| 20260502071533 | 33 | 170 | 0.0 | 0.0 | 0.00 | 0.00 | 0.00 | 87 | 1057.8 |
| 20260502071032 | 33 | 169 | 0.0 | 0.0 | 0.00 | 0.00 | 0.00 | 87 | 1057.8 |
| 20260502070529 | 33 | 164 | 0.0 | 0.0 | 0.00 | 0.00 | 0.00 | 88 | 1057.6 |
| 20260502070027 | 33 | 160 | 0.0 | 0.0 | 0.00 | 0.00 | 0.00 | 87 | 1057.6 |
| 20260502065525 | 33 | 160 | 0.0 | 0.0 | 0.00 | 0.00 | 0.00 | 87 | 1057.7 |
| 20260502065023 | 33 | 175 | 0.0 | 0.0 | 0.00 | 0.00 | 0.00 | 87 | 1057.8 |
| 20260502064521 | 33 | 175 | 0.0 | 0.0 | 0.00 | 0.00 | 0.00 | 86 | 1057.6 |
| 20260502064018 | 33 | 178 | 0.0 | 0.0 | 0.00 | 0.00 | 0.00 | 84 | 1057.7 |
| 20260502063516 | 34 | 179 | 0.0 | 0.0 | 0.00 | 0.00 | 0.00 | 83 | 1057.6 |
| 20260502063014 | 35 | 182 | 0.0 | 0.0 | 0.00 | 0.00 | 0.00 | 83 | 1057.8 |
| 20260502062510 | 35 | 171 | 0.0 | 0.0 | 0.00 | 0.00 | 0.00 | 82 | 1057.7 |
| 20260502062009 | 35 | 179 | 0.0 | 0.0 | 0.00 | 0.00 | 0.00 | 80 | 1057.7 |
| 20260502061506 | 36 | 179 | 0.0 | 0.0 | 0.00 | 0.00 | 0.00 | 79 | 1057.8 |
| 20260502061003 | 36 | 181 | 0.0 | 0.0 | 0.00 | 0.00 | 0.00 | 79 | 1057.5 |
| 20260502060457 | 35 | 182 | 0.0 | 0.0 | 0.00 | 0.00 | 0.00 | 78 | 1057.6 |
| 20260502055954 | 35 | 174 | 0.0 | 0.0 | 0.00 | 0.00 | 0.00 | 79 | 1057.7 |
| 20260502055447 | 36 | 176 | 0.0 | 0.0 | 0.00 | 0.00 | 0.00 | 78 | 1057.6 |
| 20260502054946 | 36 | 176 | 0.0 | 0.0 | 0.00 | 0.00 | 0.00 | 77 | 1057.6 |
| 20260502054444 | 36 | 179 | 0.0 | 0.0 | 0.00 | 0.00 | 0.00 | 76 | 1057.6 |
| 20260502053941 | 36 | 178 | 0.0 | 0.0 | 0.00 | 0.00 | 0.00 | 76 | 1057.5 |
| 20260502053438 | 37 | 178 | 0.0 | 0.0 | 0.00 | 0.00 | 0.00 | 74 | 1057.4 |
| 20260502052935 | 37 | 179 | 0.0 | 0.0 | 0.00 | 0.00 | 0.00 | 74 | 1057.5 |
| 20260502052433 | 37 | 172 | 0.0 | 0.0 | 0.00 | 0.00 | 0.00 | 72 | 1057.5 |
| 20260502051932 | 38 | 172 | 0.0 | 0.0 | 0.00 | 0.00 | 0.00 | 72 | 1057.4 |
| 20260502051429 | 39 | 167 | 0.0 | 0.0 | 0.00 | 0.00 | 0.00 | 71 | 1057.5 |
| 20260502050926 | 39 | 188 | 0.0 | 1.0 | 0.00 | 0.00 | 0.00 | 68 | 1057.5 |
| 20260502050423 | 39 | 174 | 0.0 | 0.0 | 0.00 | 0.00 | 0.00 | 66 | 1057.4 |
| 20260502045920 | 40 | 171 | 0.0 | 0.0 | 0.00 | 0.00 | 0.00 | 65 | 1057.5 |
| 20260502045416 | 39 | 171 | 0.0 | 0.0 | 0.00 | 0.00 | 0.00 | 66 | 1057.4 |
| 20260502044914 | 40 | 167 | 0.0 | 0.0 | 0.00 | 0.00 | 0.00 | 66 | 1057.4 |
| 20260502044409 | 40 | 177 | 0.0 | 0.0 | 0.00 | 0.00 | 0.00 | 68 | 1057.4 |
| 20260502043906 | 41 | 181 | 0.0 | 0.0 | 0.00 | 0.00 | 0.00 | 64 | 1057.4 |
| 20260502043404 | 41 | 191 | 0.0 | 1.0 | 0.00 | 0.00 | 0.00 | 63 | 1057.4 |
| 20260502042903 | 40 | 172 | 0.0 | 0.0 | 0.00 | 0.00 | 0.00 | 62 | 1057.4 |
| 20260502042400 | 40 | 163 | 0.0 | 0.0 | 0.00 | 0.00 | 0.00 | 62 | 1057.4 |
| 20260502041858 | 41 | 175 | 0.0 | 0.0 | 0.00 | 0.00 | 0.00 | 60 | 1057.5 |
| 20260502041355 | 42 | 175 | 0.0 | 0.0 | 0.00 | 0.00 | 0.00 | 58 | 1057.2 |
| 20260502040853 | 41 | 174 | 0.0 | 0.0 | 0.00 | 0.00 | 0.00 | 59 | 1057.2 |
| 20260502040349 | 42 | 167 | 0.0 | 0.0 | 0.00 | 0.00 | 0.00 | 57 | 1057.2 |
| 20260502035845 | 42 | 167 | 0.0 | 0.0 | 0.00 | 0.00 | 0.00 | 56 | 1057.3 |
| 20260502035342 | 43 | 165 | 0.0 | 0.0 | 0.00 | 0.00 | 0.00 | 56 | 1057.2 |
| 20260502034839 | 42 | 169 | 0.0 | 0.0 | 0.00 | 0.00 | 0.00 | 58 | 1057.2 |
| 20260502034338 | 43 | 178 | 0.0 | 0.0 | 0.00 | 0.00 | 0.00 | 57 | 1057.4 |
| 20260502033836 | 43 | 178 | 0.0 | 0.0 | 0.00 | 0.00 | 0.00 | 57 | 1057.3 |
| 20260502033333 | 43 | 174 | 0.0 | 0.0 | 0.00 | 0.00 | 0.00 | 55 | 1057.3 |
| 20260502032830 | 43 | 174 | 0.0 | 0.0 | 0.00 | 0.00 | 0.00 | 54 | 1057.2 |